Location: Cosy Dell
(34.2789°N, 117.4537°W)
Time: 22:15:00
(UTC+00:00)

Cosmos 2221 - Visible Passes

Search period start: 18 June 2021 00:00
Search period end: 28 June 2021 00:00
Orbit: 592 x 615 km, 82.5° (Epoch: 18 June)

Date Brightness Start Highest point End Pass type
(mag) Time Alt. Az. Time Alt. Az. Time Alt. Az.
18 Jun 3.4 09:41:50 10° NNW 09:44:47 41° NNW 09:44:47 41° NNW visible
19 Jun 5.1 08:18:28 10° NE 08:20:13 14° ENE 08:20:13 14° ENE visible
19 Jun 4.0 09:54:42 10° NNW 09:57:01 26° NW 09:57:01 26° NW visible
20 Jun 4.6 08:30:07 10° NNE 08:32:28 22° NE 08:32:28 22° NE visible
20 Jun 4.6 10:07:56 10° NW 10:09:18 16° WNW 10:09:18 16° WNW visible
21 Jun 4.2 08:42:14 10° N 08:44:46 30° NNE 08:44:46 30° NNE visible
22 Jun 4.1 08:54:40 10° N 08:57:05 33° N 08:57:05 33° N visible
23 Jun 4.2 09:07:19 10° NNW 09:09:25 27° NNW 09:09:25 27° NNW visible
24 Jun 5.1 07:43:40 10° NE 07:44:56 14° NE 07:44:56 14° NE visible
24 Jun 4.6 09:20:14 10° NNW 09:21:45 19° NW 09:21:45 19° NW visible
25 Jun 4.8 07:55:27 10° NNE 07:57:17 20° NE 07:57:17 20° NE visible
25 Jun 5.0 09:33:34 10° NW 09:34:07 12° NW 09:34:07 12° NW visible
26 Jun 4.5 08:07:38 10° N 08:09:39 26° NNE 08:09:39 26° NNE visible
27 Jun 4.5 08:20:06 10° N 08:22:02 26° N 08:22:02 26° N visible
